Location: *
(32.3300°N, 34.8500°E)
Time: 06:04:58
(UTC+00:00)

Cosmos 676 Rocket - Pass Details

Date: 22 October 2019
Orbit: 755 x 783 km, 74.0° (Epoch: 18 November)

Event Time Altitude Azimuth Distance (km) Brightness Sun altitude
Exits shadow 01:33:09 65° 58° (ENE) 846 4.3 -29.4°
Drops below altitude 10° 01:37:47 10° 21° (NNE) 2,311 6.8 -28.4°
Sets 01:40:10 0° 20° (NNE) 3,237 7.5 -27.9°
